Location: Newark
(34.1333°N, 7.9667°W)
Time: 04:08:45
(UTC+00:00)

ITAMSAT 1 - Pass Details

Date: 17 April 2024
Orbit: 781 x 796 km, 98.8° (Epoch: 27 May)

Event Time Altitude Azimuth Distance (km) Brightness Sun altitude
Exits shadow 19:48:02 11° 101° (E) 2,276 9.4 -9.3°
Maximum altitude 19:50:55 17° 65° (ENE) 1,925 9.3 -9.8°
Drops below altitude 10° 19:54:10 10° 26° (NNE) 2,370 10.1 -10.5°
Sets 19:57:16 0° 7° (N) 3,304 11.1 -11.1°
